Location: Blazny
(46.0612°N, 84.4033°W)
Time: 11:01:43
(UTC-04:00)

ARIANE 6 FM1 Upper Stage - Pass Details

Date: 18 September 2024
Orbit: 564 x 594 km, 62.0° (Epoch: 03 October)

Event Time Altitude Azimuth Distance (km) Brightness Sun altitude
Exits shadow 04:46:45 - 329° (NNW) 2,300 5.8 -25.9°
Reaches altitude 10° 04:47:49 10° 336° (NNW) 1,934 5.5 -25.7°
Maximum altitude 04:51:33 27° 35° (NE) 1,162 4.8 -25.2°
Drops below altitude 10° 04:55:18 10° 93° (E) 1,933 6.1 -24.6°
Sets 04:57:50 0° 106° (ESE) 2,832 6.9 -24.3°
